www.pogodaiklimat.ru

Погода и климат >> Архив погоды >> Гана >> Akuse


ПОГОДА в Akuse

  • Прогноз погоды в Akuse
  • Монитор погоды в Akuse
  • Климат города

АРХИВ ПОГОДЫ в Akuse

Время (UTC), дата Ветер
(напр.,м/с)
 
Видим.   Явления Облачность Т
(С)
Тd
(С)
f
(%)
Тe
(С)
Тes
(С)
Комфортность P
(гПа)
Po
(гПа)
Тmin
(С)
Tmax
(С)
R
(мм)
R24
(мм)
S
(см)
18 14.10 СЗ 2 16 км в посл. час гроза 8/8 360 м
[Sc]
+26.5 +21.9 76 +34 +34 очень
душно
1011.0 1011.0 +34.0
21 14.10 штиль 0 12 км 1/0
[Ci sp]
+26.0 +24.3 90 +36 +36 очень
душно
1013.1 1013.0
00 15.10 штиль 0 12 км 4/0
[Ci sp]
+25.7 +24.4 93 +36 +36 очень
душно
1013.1 1013.0
03 15.10 штиль 0 12 км 4/0
[Ci sp]
+25.0 +24.0 94 +34 +34 очень
душно
1012.0 1012.0
06 15.10 штиль 0 14 км 4/0
[Ci sp]
+24.5 +23.5 94 +33 +33 очень
душно
1012.5 1013.0 +24.7
09 15.10 14 км н/о +29.0 +25.2 80 +42 +45 опасность
перегрева
1014.6 1015.0
12 15.10 С 1 14 км 6/6 480 м
[Cu med, cong]
+32.5 +25.3 66 +47 +57 опасность
перегрева
1012.8 1013.0
15 15.10 Ю 1 14 км гроза без осадков 8/5 360 м
[Cb cap Ci sp]
+25.5 +22.3 82 +33 +38 очень
душно
1011.5 1012.0
18 15.10 ЮЗ 1 14 км {гроза} 9/4 360 м
[Sc Ac trans Cs]
+26.0 +23.6 87 +35 +35 очень
душно
1012.3 1012.0 +33.2
06 16.10 штиль 0 10 км 8/0
[Ac trans Cs]
+23.0 +22.6 98 +32 +32 очень
душно
1013.6 1014.0 +22.9
00 17.10 С 1 12 км {гроза, дождь} 9/9 360 м
[Sc]
+24.5 +23.5 94 +33 +33 очень
душно
1015.0 1015.0 4
06 17.10 СЗ 1 10 км 9/9 360 м
[Sc]
+24.1 +23.7 98 +33 +33 очень
душно
1013.2 1013.0 +23.5 12
09 17.10 ЮВ 1 14 км 8/4
[Cu Sc Ac trans]
+26.5 +24.8 90 +38 +42 очень
душно
1014.3 1014.0
15 17.10 ЮВ 1 14 км 4/4 480 м
[Cu med, cong]
+33.0 +24.0 59 +45 +52 опасность
перегрева
1010.1 1010.0
18 17.10 ЮВ 3 12 км 5/1 480 м
[Cu med, cong Ci sp]
+26.3 +24.1 88 +37 +37 очень
душно
1011.5 1012.0 +33.5
21 17.10 штиль 0 12 км ясно +26.2 +24.5 90 +37 +37 очень
душно
1013.6 1014.0
03 18.10 штиль 0 12 км ясно +24.4 +23.6 95 +33 +33 очень
душно
1011.3 1011.0
06 18.10 штиль 0 14 км 8/3 360 м
[Sc Ac trans Cs]
+24.0 +23.3 96 +32 +32 очень
душно
1011.5 1012.0 +24.0
09 18.10 ЮЗ 2 15 км 5/5 420 м
[Cu med, cong]
+29.0 +23.8 74 +40 +45 очень
душно
1012.8 1013.0
12 18.10 СЗ 2 15 км 6/6 400 м
[Cu Sc]
+32.0 +25.0 67 +46 +54 опасность
перегрева
1011.2 1011.0
21 18.10 штиль 0 12 км 8/0
[Cs]
+26.0 +24.7 93 +37 +37 очень
душно
1011.9 1012.0
00 19.10 штиль 0 12 км ясно +25.0 +24.0 94 +34 +34 очень
душно
1011.8 1012.0
03 19.10 штиль 0 12 км ясно +24.5 +23.5 94 +33 +33 очень
душно
1009.7 1010.0
06 19.10 штиль 0 14 км 5/0
[Ci sp]
+24.0 +23.0 94 +32 +32 очень
душно
1011.1 1011.0 +23.5 7
09 19.10 С 1 14 км 6/5 450 м
[Cu med, cong Ac trans]
+29.0 +25.9 83 +43 +48 опасность
перегрева
1012.6 1013.0
18 19.10 штиль 0 14 км {гроза} 8/0
[Cs]
+27.1 +25.3 90 +39 +39 очень
душно
1008.7 1009.0 +33.5
21 19.10 штиль 0 12 км 9/0
[Cs]
+26.0 +24.3 90 +36 +36 очень
душно
1010.1 1010.0
12 20.10 В 1 14 км 6/6 480 м
[Cu med, cong]
+33.5 +24.9 61 +47 +56 опасность
перегрева
1010.2 1010.0
18 20.10 ЮВ 1 14 км 6/3 480 м
[Cu med, cong Ci sp]
+29.0 +24.5 77 +41 +41 опасность
перегрева
1008.7 1009.0 +34.5
00 21.10 штиль 0 12 км 1/0
[Ci fib]
+25.9 +24.3 91 +36 +36 очень
душно
1010.7 1011.0

 

Местоположение метеостанции Akuse (Гана): широта 6.10 долгота 0.12 высота над уровнем моря 19 м.

В архиве по умолчанию представлена погода в Akuse за последнюю неделю. Архивные данные за месяц целиком и за предыдущие месяцы, начиная с января 2011 года, Вы можете получить, выбрав интересующий диапазон дат из раскрывающегося списка и нажав кнопку "Ввод!".


*Определитесь, кто Вы:
робот инопланетянин человек

Внимание! Время в таблицах - всемирное. Для получения местного времени необходимо прибавить поправку, которая в Akuse равна 1 ч.

Смотрите также архив погоды в соседних городах и на ближайших метеорологических станциях:

Погода в Koforidua (Гана) (41 км)
Погода в Tema (Гана) (55 км)
Погода в Accra (Гана) (64 км)
Погода в Ada (Гана) (67 км)
Погода в Ho (Гана) (68 км)
Погода в Akatsi (Гана) (75 км)
Погода в Abetifi (Гана) (115 км)
Погода в Akim Oda (Гана) (123 км)
Погода в Lome (Того) (125 км)
Погода в Tabligbo (Того) (162 км)

Пояснения к столбцам:

Ветер - указаны скорость ветра в м/с - средняя за 10 мин, порывы в срок и между сроками (в фигурных скобках) и направление, откуда дует ветер: С - северный, СВ - северо-восточный, В - восточный, ЮВ - юго-восточный, Ю - южный, ЮЗ - юго-западный, З - западный, СЗ - северо-западный.
Видимость - горизонтальная дальность видимости в метрах или километрах. При видимости от 1 до 10 км при отсутствии осадков обычно наблюдается дымка, при ухудшении видимости до 1 км и менее - туман. В сухую погоду видимость может ухудшаться дымом, пылью или мглою.
Явления - указаны атмосферные явления, наблюдавшиеся в срок или в последний час перед сроком; фигурными скобками обозначены явления, наблюдавшиеся между сроками (за 1-3 часа до срока); квадратными скобками обозначены град или гололедные отложения с указанием их диаметра в мм.
Облачность - указаны через наклонную черту общая и нижняя облачность в баллах и высота нижней границы облаков в метрах; квадратными скобками обозначены формы облаков: Ci - перистые, Cs - перисто-слоистые, Cc - перисто-кучевые, Ac - высококучевые, As - высокослоистые, Sc - слоисто-кучевые, Ns - слоисто-дождевые, Cu - кучевые, Cb - кучево-дождевые. Подробнее классификацию облаков см. в Атласе облаков (PDF).
T - Температура воздуха - температура, измеренная на высоте 2 м над землей.
Td - Температура точки росы - температура, при понижении до которой содержащийся в воздухе водяной пар достигнет насыщения.
f - Относительная влажность воздуха - влажноcть воздуха, измеренная на высоте 2 м над землей.
Te - Эффективная температура - температура, которую ощущает одетый по сезону человек в тени. Характеристика душности погоды. При расчете учитывается влияние влажности воздуха и скорости ветра на теплоощущения человека.
Tes - Эффективная температура на солнце - температура, которую ощущает человек, с поправкой на солнечный нагрев. Характеристика знойности погоды. Зависит от высоты солнца над горизонтом, облачности и скорости ветра. Ночью, в пасмурную погоду, а также при ветре 12 м/с и более поправка равна нулю.
P - Атмосферное давление - приведенное к уровню моря атмосферное давление.
Po - Атмосферное давление - измеренное на уровне метеостанции атмосферное давление.
Tmin - Минимальная температура - минимум температуры воздуха на высоте 2 м над землей.
Tmax - Максимальная температура - максимум температуры воздуха на высоте 2 м над землей.
R - Количество осадков - Количество выпавших осадков за период времени, мм. При наведении курсора мыши на число - период времени, за который выпало указанное количество осадков.
R24 - Количество осадков - Количество выпавших осадков за 24 часа, мм.
S - Снежный покров - Высота снежного покрова, см. При наведении курсора мыши на число - состояние снежного покрова и степень покрытия местности в баллах.